Kezdőlap
METAR-TAF:

METAR-TAF

Repülőterek :

Waseca Municipal Airport

Waseca, Minnesota, Amerikai Egyesült Államok

földrajzi szélesség: 44-04-24N, földrajzi hosszúság: 093-33-11W, magasság: 343 m

Jelenlegi meteorológiai megfigyelések

A jelentés 26 perccel ezelõtt készült, 10:15 UTC
Szélcsend
Hőmérséklet 10°C
Páratartalom 76%
Légköri nyomás 1017 hPa
Szórványos felhőzet 12000 lábon

METAR: KACQ 171015Z AUTO 00000KT SCT120 10/06 A3003 RMK AO2 PWINO

Idő: 05:41 (10:41 UTC)


TAF: hiányzik

Meteorológiai megfigyelések és előrejelzések több, mint 4000 repülőtéren (METAR és TAF jelentéseket).

A térképen piros és sárga pontok jelzik az elérhető meteorológiai állomásokat.

Mozgassa az egeret a pont fölött, hogy megjelenjen az állomás neve.

Azután kattintson az időjárási megfigyelések és előrejelzések megtekintéséhez.

A térkép megváltoztatása: kattintson a fekete keresztel jelölt zöld gombra ráközelítéshez, a vonallal jelölt zöld gombra távolításhoz, vagy a zöld nyilakra a szomszédos térképek eléréséhez.


METAR-TAF: